Trinity Center, CA

8:52 AM PDT on June 26, 2017 (GMT -0700)
Trinity Center

Weather History for KO86 - December, 2012

Change the Weather History Date:

Sunday, December 2, 2012

  Actual Average (KMHS) Record (KMHS)
Temperature  
Mean Temperature 42 °F -  
Max Temperature 50 °F 42 °F 66 °F (1940)
Min Temperature 35 °F 28 °F 17 °F (1990)
Degree Days  
Heating Degree Days 22    
Moisture  
Dew Point 41 °F    
Average Humidity 87    
Maximum Humidity 100    
Minimum Humidity 58    
Precipitation  
Precipitation 1.33 in - - ()
Sea Level Pressure  
Sea Level Pressure 29.83 in    
Wind  
Wind Speed 4 mph ()    
Max Wind Speed 12 mph    
Max Gust Speed 17 mph    
Visibility 8.0 miles    
Events      
Averages and records for this station are not official NWS values.
T = Trace of Precipitation, MM = Missing Value Source: Averaged Metar Reports

Daily Weather History Graph

Daily Weather History Graph

Search for Another Location

Airport or City:

Trip Planner

Search our weather history database for the weather conditions in past years. The results will help you decide how hot, cold, wet, or windy it might be!

Date:

Astronomy

Dec. 02, 2012 Rise Set
Actual Time 7:17 AM PST 4:42 PM PST
Civil Twilight 6:47 AM PST 5:13 PM PST
Nautical Twilight 6:12 AM PST 5:47 PM PST
Astronomical Twilight 5:39 AM PST 6:20 PM PST
Moon 8:36 PM PST (12/2) 10:10 AM PST (12/2)
Length of Visible Light 10h 26m
Length of Day
9h 25m
Waning Gibbous, 85% of the Moon is Illuminated
Dec 2
Waning Gibbous
Dec 6
Last Quarter
Dec 13
New
Dec 19
First Quarter
Dec 28
Full

Hourly Weather History & Observations

Time (PST) Temp. Windchill Dew Point Humidity Pressure Visibility Wind Dir Wind Speed Gust Speed Precip Events Conditions
12:30 AM 48.2 °F - 48.2 °F 100% 29.58 in 2.5 mi SW 3.5 mph - 0.24 in   Overcast
12:50 AM 50.0 °F - 48.2 °F 94% 29.56 in 3.0 mi SW 8.1 mph - 0.38 in   Overcast
1:10 AM 50.0 °F - 48.2 °F 94% 29.55 in 3.0 mi SSW 5.8 mph - 0.07 in   Overcast
1:30 AM 50.0 °F - 48.2 °F 94% 29.53 in 3.0 mi WSW 4.6 mph - 0.22 in   Overcast
1:50 AM 50.0 °F - 48.2 °F 94% 29.53 in 2.5 mi West 5.8 mph - 0.37 in   Overcast
2:10 AM 50.0 °F - 48.2 °F 94% 29.53 in 3.0 mi WSW 5.8 mph - 0.08 in   Overcast
2:30 AM 50.0 °F - 48.2 °F 94% 29.52 in 3.0 mi SSW 4.6 mph - 0.23 in   Overcast
2:50 AM 50.0 °F - 48.2 °F 94% 29.50 in 3.0 mi West 6.9 mph - 0.40 in   Overcast
3:10 AM 50.0 °F - 48.2 °F 94% 29.50 in 3.0 mi West 6.9 mph - 0.08 in   Overcast
3:30 AM 50.0 °F - 48.2 °F 94% 29.50 in 3.0 mi West 3.5 mph - 0.20 in   Overcast
3:50 AM 50.0 °F - 48.2 °F 94% 29.53 in 4.0 mi Calm Calm - 0.28 in   Overcast
4:10 AM 50.0 °F - 48.2 °F 94% 29.53 in 4.0 mi North 3.5 mph - 0.02 in   Mostly Cloudy
4:30 AM 50.0 °F - 48.2 °F 94% 29.53 in 6.0 mi West 3.5 mph - 0.06 in   Overcast
4:50 AM 50.0 °F - 46.4 °F 87% 29.54 in 7.0 mi South 8.1 mph - 0.09 in   Overcast
5:10 AM 48.2 °F - 44.6 °F 87% 29.54 in 6.0 mi South 10.4 mph - 0.02 in   Overcast
5:30 AM 48.2 °F - 44.6 °F 87% 29.54 in 8.0 mi South 10.4 mph - 0.04 in   Overcast
5:50 AM 48.2 °F - 44.6 °F 87% 29.55 in 4.0 mi South 11.5 mph 17.3 mph 0.07 in   Overcast
6:10 AM 48.2 °F - 44.6 °F 87% 29.56 in 5.0 mi South 10.4 mph - 0.02 in   Overcast
6:30 AM 46.4 °F 42.9 °F 44.6 °F 93% 29.57 in 4.0 mi South 6.9 mph - 0.07 in   Overcast
6:50 AM 46.4 °F 43.5 °F 42.8 °F 87% 29.57 in 8.0 mi SSW 5.8 mph - 0.10 in   Overcast
7:10 AM 46.4 °F 45.2 °F 42.8 °F 87% 29.59 in 10.0 mi NW 3.5 mph - N/A   Mostly Cloudy
7:30 AM 46.4 °F 43.5 °F 42.8 °F 87% 29.62 in 10.0 mi North 5.8 mph - N/A   Mostly Cloudy
8:10 AM 44.6 °F - 44.6 °F 100% 29.66 in 10.0 mi Calm Calm - N/A   Overcast
8:30 AM 44.6 °F - 44.6 °F 100% 29.68 in 10.0 mi Calm Calm - N/A   Overcast
8:50 AM 46.4 °F 45.2 °F 42.8 °F 87% 29.70 in 10.0 mi NE 3.5 mph - N/A   Mostly Cloudy
9:10 AM 46.4 °F 43.5 °F 44.6 °F 93% 29.73 in 10.0 mi SSE 5.8 mph - N/A   Mostly Cloudy
9:30 AM 46.4 °F 43.5 °F 41.0 °F 81% 29.75 in 5.0 mi SSE 5.8 mph - 0.01 in   Overcast
9:50 AM 46.4 °F 45.2 °F 44.6 °F 93% 29.77 in 5.0 mi ESE 3.5 mph - 0.02 in   Mostly Cloudy
10:10 AM 46.4 °F - 41.0 °F 81% 29.79 in 10.0 mi Calm Calm - N/A   Mostly Cloudy
10:30 AM 46.4 °F - 42.8 °F 87% 29.80 in 5.0 mi Calm Calm - N/A   Mostly Cloudy
10:50 AM 48.2 °F - 41.0 °F 76% 29.82 in 10.0 mi SSE 6.9 mph - N/A   Overcast
11:10 AM 48.2 °F - 41.0 °F 76% 29.83 in 7.0 mi SSE 6.9 mph - N/A   Mostly Cloudy
11:30 AM 46.4 °F - 42.8 °F 87% 29.85 in 10.0 mi Calm Calm - N/A   Mostly Cloudy
11:50 AM 48.2 °F - 39.2 °F 71% 29.86 in 10.0 mi Calm Calm - N/A   Partly Cloudy
12:10 PM 50.0 °F - 39.2 °F 66% 29.86 in 10.0 mi South 5.8 mph - N/A   Partly Cloudy
12:30 PM 50.0 °F - 39.2 °F 66% 29.87 in 10.0 mi South 9.2 mph - N/A   Clear
12:50 PM 50.0 °F - 39.2 °F 66% 29.88 in 10.0 mi South 8.1 mph - N/A   Partly Cloudy
1:10 PM 50.0 °F - 39.2 °F 66% 29.89 in 10.0 mi SSW 4.6 mph - N/A   Partly Cloudy
1:30 PM 48.2 °F - 39.2 °F 71% 29.90 in 10.0 mi South 4.6 mph - N/A   Clear
1:50 PM 50.0 °F - 37.4 °F 62% 29.91 in 10.0 mi SW 3.5 mph - N/A   Clear
2:10 PM 50.0 °F - 35.6 °F 58% 29.93 in 10.0 mi SSW 5.8 mph - N/A   Clear
2:30 PM 50.0 °F - 37.4 °F 62% 29.94 in 10.0 mi SSE 8.1 mph - N/A   Clear
2:50 PM 50.0 °F - 35.6 °F 58% 29.95 in 10.0 mi South 4.6 mph - N/A   Clear
3:10 PM 48.2 °F - 37.4 °F 66% 29.96 in 10.0 mi South 9.2 mph - N/A   Partly Cloudy
3:30 PM 48.2 °F - 35.6 °F 62% 29.97 in 10.0 mi South 6.9 mph - N/A   Partly Cloudy
4:10 PM 44.6 °F 43.1 °F 37.4 °F 76% 30.00 in 10.0 mi SSW 3.5 mph - N/A   Clear
4:30 PM 41.0 °F - 39.2 °F 93% 30.00 in 10.0 mi Calm Calm - N/A   Clear
5:10 PM 41.0 °F 39.0 °F 39.2 °F 93% 30.02 in 10.0 mi West 3.5 mph - N/A   Clear
5:30 PM 41.0 °F 38.0 °F 37.4 °F 87% 30.04 in 10.0 mi West 4.6 mph - N/A   Clear
5:50 PM 39.2 °F 37.0 °F 37.4 °F 93% 30.06 in 10.0 mi West 3.5 mph - N/A   Clear
6:10 PM 39.2 °F 35.9 °F 37.4 °F 93% 30.07 in 10.0 mi West 4.6 mph - N/A   Clear
6:30 PM 39.2 °F 35.9 °F 37.4 °F 93% 30.07 in 10.0 mi West 4.6 mph - N/A   Clear
6:50 PM 37.4 °F 32.8 °F 35.6 °F 93% 30.08 in 10.0 mi West 5.8 mph - N/A   Clear
7:10 PM 37.4 °F 34.9 °F 35.6 °F 93% 30.08 in 10.0 mi West 3.5 mph - N/A   Clear
7:30 PM 37.4 °F 34.9 °F 35.6 °F 93% 30.09 in 10.0 mi West 3.5 mph - N/A   Clear
7:50 PM 35.6 °F - 35.6 °F 100% 30.10 in 10.0 mi Calm Calm - N/A   Clear
8:10 PM 35.6 °F 30.7 °F 35.6 °F 100% 30.11 in 10.0 mi WNW 5.8 mph - N/A   Clear
8:30 PM 35.6 °F - 35.6 °F 100% 30.12 in 10.0 mi Calm Calm - N/A   Clear
8:50 PM 35.6 °F - 33.8 °F 93% 30.13 in 10.0 mi Calm Calm - N/A   Clear
9:10 PM 35.6 °F 31.7 °F 33.8 °F 93% 30.14 in 10.0 mi West 4.6 mph - N/A   Mostly Cloudy
9:30 PM 35.6 °F - 33.8 °F 93% 30.15 in 10.0 mi Calm Calm - N/A   Mostly Cloudy
9:50 PM 35.6 °F - 33.8 °F 93% 30.16 in 10.0 mi Calm Calm - N/A   Mostly Cloudy
10:10 PM 35.6 °F 32.8 °F 33.8 °F 93% 30.17 in 10.0 mi West 3.5 mph - N/A   Overcast
10:30 PM 35.6 °F 32.8 °F 33.8 °F 93% 30.16 in 10.0 mi West 3.5 mph - N/A   Overcast
10:50 PM 35.6 °F - 33.8 °F 93% 30.16 in 9.0 mi Calm Calm - N/A   Mostly Cloudy
11:10 PM 35.6 °F - 33.8 °F 93% 30.17 in 10.0 mi Calm Calm - N/A   Overcast
11:30 PM 35.6 °F - 32.0 °F 87% 30.16 in 10.0 mi Calm Calm - N/A   Overcast
11:50 PM 35.6 °F 32.8 °F 33.8 °F 93% 30.17 in 10.0 mi West 3.5 mph - N/A   Overcast